#timestamp,LO_Frequency,Hit,StdDev 
1630893615.2,286047002.2,N
1630893635.0,286046999.8,N
1630893635.9,286046999.8,N
1630893655.8,286047002.5,N
1630893675.6,286047002.7,N
1630893695.4,286047001.6,N
1630893715.3,286047002.1,N
1630893735.1,286047001.9,N
1630893755.8,286047001.9,N
1630893775.7,286047001.9,N
1630893795.5,286047001.9,N
1630893815.3,286047001.4,N
1630893835.2,286047001.9,N
1630893855.9,286047001.9,N
1630893875.7,286047002.5,N
1630893895.6,286047002.8,N
1630893915.4,286046999.8,N
1630893935.2,286046999.8,N
1630893955.1,286047000.3,N
1630893956.0,286047000.3,N
1630893975.8,286047000.3,N
1630893995.6,286047000.7,N
1630894015.5,286047000.6,N
1630894035.3,286047000.0,N
1630894055.1,286047002.4,N
1630894075.9,286047000.4,N
1630894095.7,286046999.8,N
1630894115.5,286047000.9,N
1630894135.4,286047000.9,N
1630894155.2,286047000.8,N
1630894175.0,286047000.2,N
1630894175.9,286047000.2,N
1630894195.8,286047000.2,N
1630894215.6,286046999.7,N
1630894235.4,286047002.7,N
1630894255.3,286047000.4,N
1630894275.1,286047000.6,N
1630894276.0,286047000.6,N
1630894295.8,286046999.9,N
1630894315.7,286047000.9,N
1630894335.5,286046999.9,N
1630894355.3,286046998.1,N
1630894375.2,286046998.7,N
1630894395.9,286046998.4,N
1630894415.7,286046999.2,N
1630894435.6,286046999.4,N
1630894455.4,286046998.8,N
1630894475.2,286046998.7,N
1630894495.1,286046999.3,N
1630894496.0,286046999.3,N
1630894515.8,286046999.0,N
1630894565.6,286046999.4,E
1630894575.6,286046998.3,N
1630894595.4,286046999.6,P
1630894615.2,286046999.0,N
1630894635.1,286046998.8,N
1630894636.0,286046998.8,N
1630894655.8,286046998.4,Y
1630894675.6,286047000.6,P
1630894695.5,286047000.3,N
1630894715.3,286047000.3,N
1630894735.1,286047000.9,N
1630894755.9,286047000.9,N
1630894775.7,286047000.9,N
1630894795.5,286047000.3,N
1630894815.4,286047000.0,N
1630894835.2,286047000.0,N
1630894855.0,286047000.4,N
1630894855.9,286047000.4,N
1630894875.8,286047000.7,N
1630894895.6,286047000.7,N
1630894915.4,286046998.1,Y
1630894935.3,286046998.8,P
1630894955.1,286046999.3,N
1630894956.0,286046999.3,N
1630894975.8,286046999.4,N
1630894995.7,286046999.0,N
1630895015.5,286046997.0,Y
1630895035.3,286046998.8,P
1630895055.2,286047000.9,P
1630895075.9,286047001.0,N
1630895095.7,286046998.5,N
1630895115.6,286046998.6,N
1630895135.4,286047000.9,N
1630895155.2,286047000.7,N
1630895175.1,286046999.7,N
1630895176.0,286046999.7,N
1630895195.8,286047002.1,N
1630895215.6,286047004.0,Y
1630895235.5,286047001.3,P
1630895255.3,286047002.3,P
1630895275.1,286047002.4,N
1630895295.9,286047002.2,N
1630895315.7,286047001.7,N
1630895335.5,286047003.9,Y
1630895355.4,286047001.6,P
1630895375.2,286047001.6,P
1630895395.0,286047001.7,P
1630895395.9,286047001.7,Y
1630895415.8,286047001.1,P
1630895435.6,286046998.5,P
1630895455.4,286046998.5,N
1630895475.3,286046998.5,N
1630895495.1,286047000.3,N
1630895515.8,286047000.2,N
1630895535.7,286047001.1,N
1630895555.5,286047001.1,N
1630895575.3,286046998.9,N
1630895595.2,286046999.0,N
1630895615.0,286046998.6,N
1630895615.9,286046998.6,N
1630895635.7,286047000.8,N
1630895655.6,286047000.1,N
1630895675.4,286047002.1,N
1630895695.2,286047001.9,N
1630895715.1,286047001.3,N
1630895716.0,286047001.3,N
1630895735.8,286047001.8,N
1630895755.6,286047001.3,N
1630895775.5,286047002.8,N
1630895795.3,286047001.8,N
1630895815.1,286047002.0,N
1630895835.9,286047002.0,N
1630895855.7,286047001.9,N
1630895875.5,286047003.8,N
1630895895.4,286047003.6,N
1630895915.2,286047004.4,N
1630895935.0,286047003.1,N
1630895935.9,286047003.1,N
1630895955.8,286047004.1,N
1630895975.6,286047001.7,N
1630895995.4,286047002.4,N
1630896015.3,286047002.4,N
1630896035.1,286047002.3,N
1630896055.8,286047002.5,N
1630896075.7,286047004.3,N
1630896095.5,286047004.4,N
1630896115.3,286047001.7,N
1630896135.2,286047001.9,N
1630896155.0,286047004.1,N
1630896155.9,286047004.1,Y
1630896175.7,286047002.8,P
1630896195.6,286047000.4,N
1630896215.4,286046998.6,N
1630896235.2,286046999.3,N
1630896255.1,286046995.0,Y
1630896256.0,286046995.0,P
1630896275.8,286046994.2,N
1630896295.7,286046993.5,N
1630896315.5,286046993.7,N
1630896335.3,286046995.1,N
1630896355.2,286046997.0,N
1630896375.9,286046999.4,N
1630896395.7,286046996.9,N
1630896415.6,286046997.5,N
1630896435.4,286046995.3,N
1630896455.2,286046997.9,N
1630896475.1,286046997.3,N
1630896476.0,286046997.3,N
1630896495.8,286046997.9,N
1630896515.6,286046998.0,N
1630896535.5,286046995.8,N
1630896555.3,286046993.8,Y
1630896575.1,286046996.5,P
1630896595.9,286046999.1,P
1630896615.7,286046996.7,N
1630896635.5,286046997.2,N
1630896655.4,286046996.9,Y
1630896675.2,286047001.1,P
1630896695.0,286047000.9,N
1630896695.9,286047000.9,N
1630896715.8,286047000.7,N
1630896735.6,286046998.2,N
1630896755.4,286046998.5,N
1630896775.3,286047001.0,N
1630896795.1,286047001.2,N
1630896796.0,286047001.2,N
1630896815.8,286047001.2,N
1630896835.7,286046998.9,N
1630896855.5,286047000.7,N
1630896875.3,286047001.1,N
1630896895.2,286046998.5,N
1630896915.9,286047001.1,N
1630896935.7,286046998.5,N
1630896955.6,286047001.1,N
1630896975.4,286047000.6,N
1630896995.2,286047000.9,N
1630897015.1,286046998.2,N
1630897016.0,286046998.2,N
1630897035.8,286046998.4,N
1630897055.6,286047001.1,N
1630897075.5,286047001.2,N
1630897095.3,286047001.1,N
1630897115.1,286047001.0,N
1630897135.9,286047001.1,N
1630897155.7,286047000.0,N
1630897175.5,286047000.8,N
1630897195.4,286047000.8,N
